Denver Centennial, CO

6:32 PM MDT on June 28, 2017 (GMT -0600)
Centennial

Weather History for KAPA - November, 2013

Change the Weather History Date:

Saturday, November 16, 2013

  Actual Average Record
Temperature  
Mean Temperature 44 °F -  
Max Temperature 58 °F 49 °F 88 °F (2012)
Min Temperature 30 °F 25 °F -4 °F (2014)
Degree Days  
Heating Degree Days 21    
Month to date heating degree days 330  
Moisture  
Dew Point 19 °F    
Average Humidity 49    
Maximum Humidity 82    
Minimum Humidity 16    
Precipitation  
Precipitation 0.00 in - - ()
Month to date precipitation T  
Year to date precipitation 17.20  
Sea Level Pressure  
Sea Level Pressure 29.37 in    
Wind  
Wind Speed 8 mph (SW)    
Max Wind Speed 32 mph    
Max Gust Speed 41 mph    
Visibility 10 miles    
Events      
Averages and records for this station are not official NWS values.
T = Trace of Precipitation, MM = Missing Value Source: NWS Daily Summary

Daily Weather History Graph

Daily Weather History Graph

Search for Another Location

Airport or City:

Trip Planner

Search our weather history database for the weather conditions in past years. The results will help you decide how hot, cold, wet, or windy it might be!

Date:

Astronomy

Nov. 16, 2013 Rise Set
Actual Time 6:45 AM MST 4:43 PM MST
Civil Twilight 6:16 AM MST 5:11 PM MST
Nautical Twilight 5:43 AM MST 5:44 PM MST
Astronomical Twilight 5:11 AM MST 6:16 PM MST
Moon 4:19 PM MST (11/16) 5:44 AM MST (11/16)
Length of Visible Light 10h 55m
Length of Day
9h 58m
Waxing Gibbous, 99% of the Moon is Illuminated
Nov 16
Waxing Gibbous
Nov 17
Full
Nov 25
Last Quarter
Dec 2
New
Dec 9
First Quarter

Hourly Weather History & Observations

Time (MST) Temp. Windchill Dew Point Humidity Pressure Visibility Wind Dir Wind Speed Gust Speed Precip Events Conditions
12:53 AM 39.9 °F - 27.0 °F 60% 29.38 in 10.0 mi Calm Calm - N/A   Scattered Clouds
1:53 AM 37.0 °F 33.3 °F 26.1 °F 65% 29.39 in 10.0 mi SSW 4.6 mph - N/A   Scattered Clouds
2:53 AM 39.0 °F 35.7 °F 26.1 °F 60% 29.37 in 10.0 mi South 4.6 mph - N/A   Scattered Clouds
3:53 AM 39.9 °F 33.9 °F 19.9 °F 45% 29.36 in 10.0 mi West 9.2 mph - N/A   Scattered Clouds
4:53 AM 35.1 °F 31.0 °F 18.0 °F 50% 29.39 in 10.0 mi South 4.6 mph - N/A   Scattered Clouds
5:53 AM 36.0 °F 29.6 °F 17.1 °F 46% 29.38 in 10.0 mi SSW 8.1 mph - N/A   Scattered Clouds
6:53 AM 30.9 °F 26.2 °F 19.0 °F 61% 29.40 in 10.0 mi SE 4.6 mph - N/A   Scattered Clouds
7:53 AM 45.0 °F 38.2 °F 12.9 °F 27% 29.33 in 10.0 mi SW 15.0 mph - N/A   Scattered Clouds
8:53 AM 48.9 °F - 14.0 °F 25% 29.32 in 10.0 mi SSW 16.1 mph 20.7 mph N/A   Scattered Clouds
9:53 AM 51.1 °F - 15.1 °F 24% 29.32 in 10.0 mi SSW 16.1 mph - N/A   Scattered Clouds
10:53 AM 55.9 °F - 10.9 °F 17% 29.29 in 10.0 mi West 19.6 mph 28.8 mph N/A   Scattered Clouds
11:53 AM 55.0 °F - 10.0 °F 17% 29.27 in 10.0 mi West 19.6 mph 27.6 mph N/A   Scattered Clouds
12:53 PM 57.0 °F - 12.0 °F 17% 29.25 in 10.0 mi SW 24.2 mph 36.8 mph N/A   Mostly Cloudy
1:53 PM 57.9 °F - 12.0 °F 16% 29.25 in 10.0 mi WSW 24.2 mph 33.4 mph N/A   Scattered Clouds
2:53 PM 55.0 °F - 14.0 °F 20% 29.28 in 10.0 mi SW 24.2 mph 39.1 mph N/A   Scattered Clouds
3:53 PM 53.1 °F - 14.0 °F 21% 29.29 in 10.0 mi WSW 20.7 mph 28.8 mph N/A   Scattered Clouds
4:53 PM 50.0 °F - 15.1 °F 25% 29.34 in 10.0 mi SW 15.0 mph - N/A   Scattered Clouds
5:53 PM 45.0 °F - 21.0 °F 39% 29.41 in 10.0 mi Calm Calm - N/A   Scattered Clouds
6:53 PM 44.1 °F 41.5 °F 21.9 °F 42% 29.42 in 10.0 mi SE 4.6 mph - N/A   Scattered Clouds
7:53 PM 43.0 °F 40.3 °F 21.9 °F 43% 29.42 in 10.0 mi NW 4.6 mph - N/A   Scattered Clouds
8:53 PM 42.1 °F - 25.0 °F 51% 29.45 in 10.0 mi Calm Calm - N/A   Mostly Cloudy
9:53 PM 37.0 °F 31.6 °F 30.0 °F 76% 29.48 in 10.0 mi NW 6.9 mph - N/A   Mostly Cloudy
10:53 PM 34.0 °F 31.0 °F 28.9 °F 82% 29.48 in 10.0 mi Variable 3.5 mph - N/A   Scattered Clouds
11:53 PM 36.0 °F - 28.9 °F 76% 29.50 in 10.0 mi Calm Calm - N/A   Mostly Cloudy